Location: Bogis-Bossey
(46.3500°N, 6.1667°E)
Time: 23:53:14
(UTC+00:00)

USA 238 DEB - Pass Details

Date: 02 March 2024
Orbit: 948 x 1263 km, 63.4° (Epoch: 09 April)

Event Time Altitude Azimuth Distance (km) Brightness Sun altitude
Exits shadow 03:54:19 49° 280° (W) 1,285 3.7 -24.4°
Maximum altitude 03:55:30 56° 317° (NW) 1,208 3.8 -24.2°
Drops below altitude 10° 04:02:16 10° 35° (NE) 2,931 6.6 -23.1°
Sets 04:05:07 0° 40° (NE) 3,940 7.5 -22.6°
